www.pogodaiklimat.ru

Погода и климат >> Архив погоды >> Россия >> Нижегородская область >> Нижний Новгород


АРХИВ ПОГОДЫ в Нижнем Новгороде

Время (UTC), дата Ветер
(напр.,м/с)
 
Видим.   Явления Облачность Т
(С)
Тd
(С)
f
(%)
Тe
(С)
Тes
(С)
Комфортность P
(гПа)
Po
(гПа)
Тmin
(С)
Tmax
(С)
R
(мм)
R24
(мм)
S
(см)
03 9.07 штиль 0
{2}
10 км 10/4 600 м
[Cb cap Ac trans Ci fib]
+16.3 +14.6 90 +16 +17 по сезону 1002.3 984.0 +14.0
06 9.07 З 1-2
{3}
10 км 10/8 600 м
[Cb cap Ac trans Ci fib]
+18.1 +15.1 83 +19 +21 по сезону 1003.0 984.8
09 9.07 З 2-5
{6}
10 км в посл. час ливневой дождь 10/6 600 м
[Cb cap Ac trans Cc]
+19.8 +16.0 79 +23 +26 комфорт 1003.7 985.6
12 9.07 З 2-5
{7}
10 км {ливн. осадки} 10/8 600 м
[Cb cap Ac trans Ci fib]
+21.1 +13.6 62 +24 +25 комфорт 1004.1 986.0
15 9.07 штиль 0
{8}
10 км в посл. час ливневой дождь {гроза} 8/4 600 м
[Cb cap Ac trans Cc]
+17.9 +16.5 92 +18 +19 прохладно 1005.0 986.8 +22.1 4
18 9.07 штиль 0
{4}
10 км {гроза, ливн. осадки} 8/0
[Ac trans]
+16.9 +15.1 89 +17 +17 по сезону 1005.6 987.3
21 9.07 З 1-3
{6}
10 км 8/5 300 м
[St Ac trans Ci fib]
+15.8 +14.4 91 +16 +16 по сезону 1006.4 988.0
00 10.07 З 1-3
{3}
1000 м дымка 9/9 200 м
[St]
+16.4 +15.7 96 +17 +17 тепло 1007.1 988.7
03 10.07 З 2-4
{5}
300 м туман ?/? +16.6 +16.4 99 +17 +17 по сезону 1008.0 989.6 +15.6
06 10.07 З 1-4
{5}
10 км {туман} 9/9 300 м
[St]
+17.3 +16.4 94 +18 +19 по сезону 1009.1 990.8
09 10.07 СЗ 1-3
{5}
10 км в посл. час ливневой дождь 8/6 600 м
[Cb cap Ac trans]
+21.1 +17.5 80 +25 +30 комфорт 1009.4 991.3
12 10.07 З 1-3
{5}
10 км {ливн. осадки} 8/6 600 м
[Cb cap Ac trans]
+20.4 +17.1 81 +25 +28 комфорт 1009.9 991.7
15 10.07 З 1-3
{3}
10 км {гроза, ливн. осадки} 9/5 600 м
[Cb cap Ac trans Ci fib]
+19.5 +18.2 92 +23 +24 комфорт 1010.2 992.0 +21.7 4
18 10.07 СЗ 1-2
{3}
10 км {гроза, ливн. осадки} 9/6 600 м
[Cb cap Ci fib]
+19.4 +18.3 93 +23 +23 комфорт 1011.0 992.7
21 10.07 З 1-2
{3}
10 км 9/4 600 м
[Sc Ac trans]
+17.8 +17.1 96 +19 +19 тепло 1011.3 992.9
00 11.07 штиль 0
{2}
1000 м дымка 10/10 200 м
[St]
+17.4 +17.1 98 +17 +17 по сезону 1011.7 993.3
03 11.07 штиль 0-1
{2}
4000 м слабый ливневой дождь {туман} 10/10 200 м
[Cb cap]
+17.8 +17.5 98 +18 +18 по сезону 1012.0 993.6 +17.3 0.5
06 11.07 СВ 1-2
{3}
4000 м слабый ливневой дождь {туман} 10/10 300 м
[Cb cap]
+17.7 +17.2 97 +19 +19 по сезону 1013.0 994.6 +17.2
09 11.07 СВ 2-4
{5}
10 км {ливн. осадки} 8/8 600 м
[Cb cap]
+23.0 +16.1 65 +27 +30 душно 1012.7 994.6
12 11.07 СВ 1-3
{6}
10 км {ливн. осадки} 9/8 600 м
[Cb cap Ac trans]
+23.0 +15.7 63 +27 +29 душно 1012.8 994.7
15 11.07 СВ 1-2
{3}
10 км 9/3 600 м
[Cb cap Ac trans Ci fib]
+24.4 +14.1 53 +27 +28 жарко 1012.6 994.6 +24.6 7
18 11.07 СВ 1-4
{4}
10 км 1/1 1000 м
[Sc diur, vesp]
+20.1 +12.9 63 +23 +23 комфорт 1013.3 995.0
21 11.07 штиль 0
{4}
10 км 4/4 1000 м
[Sc diur, vesp]
+16.9 +13.1 78 +17 +17 по сезону 1013.9 995.3
00 12.07 СВ 2-3
{3}
10 км 4/4 1000 м
[Sc diur, vesp]
+15.8 +13.3 85 +16 +16 по сезону 1013.6 995.0
03 12.07 СВ 1-1
{3}
10 км ясно +17.1 +13.3 78 +18 +20 по сезону 1013.8 995.4 +14.8
06 12.07 З 1-3
{5}
10 км 9/8 1000 м
[Sc diur, vesp Ac trans]
+19.7 +13.2 66 +22 +24 комфорт 1013.3 995.0
09 12.07 С 2-5
{5}
10 км 9/6 600 м
[Cb cap Ac trans]
+22.7 +13.8 57 +26 +29 жарко 1012.3 994.2
12 12.07 СЗ 2-4
{6}
10 км 8/4 600 м
[Cb cap Ac trans]
+22.8 +14.1 58 +26 +30 жарко 1011.7 993.6
15 12.07 С 1-5
{5}
10 км 8/4 600 м
[Cb cap Ac trans]
+23.2 +14.6 58 +27 +28 душно 1011.1 993.0 +23.3
18 12.07 СВ 1-2
{5}
10 км 8/0
[Ac trans]
+19.7 +15.1 75 +23 +23 комфорт 1011.3 993.0
21 12.07 штиль 0
{2}
10 км 6/0
[Ci fib]
+17.7 +15.7 88 +18 +18 по сезону 1011.1 992.7
00 13.07 штиль 0
{2}
10 км 8/5 300 м
[St Ac trans Ci fib]
+16.1 +15.6 97 +16 +16 по сезону 1011.0 992.5
03 13.07 штиль 0
{2}
4300 м дымка 9/9 300 м
[St]
+17.4 +16.5 94 +17 +18 по сезону 1010.9 992.5 +15.6
06 13.07 З 1-3
{4}
10 км 9/8 600 м
[Cb cap Ac lent]
+19.1 +16.3 84 +22 +23 комфорт 1010.8 992.5
09 13.07 С 1-2
{4}
10 км 9/9 600 м
[Cb cap]
+22.9 +16.2 66 +27 +29 душно 1010.2 992.2
12 13.07 ЮЗ 1-2
{4}
10 км {ливн. осадки} 9/8 600 м
[Cb cap Ac trans]
+22.1 +17.0 73 +27 +28 душно 1010.0 991.9
15 13.07 С 2-4
{5}
10 км 6/3 1000 м
[Cb cap Ac cuf Ci ing]
+23.8 +15.5 60 +27 +28 жарко 1009.0 991.1 +24.4 0.3
18 13.07 штиль 0
{4}
10 км 3/0
[Ac trans]
+19.6 +15.6 78 +21 +21 комфорт 1009.6 991.4
21 13.07 ЮВ 1-2
{3}
10 км 3/0
[Ci fib]
+18.6 +16.3 86 +21 +21 комфорт 1009.8 991.5
00 14.07 штиль 0
{2}
10 км 3/0
[Ci fib]
+16.5 +15.7 95 +16 +16 по сезону 1009.7 991.3
03 14.07 В 2-2
{3}
500 м туман ?/? +17.7 +17.4 98 +18 +18 по сезону 1009.9 991.6 +15.7
06 14.07 ЮВ 1-3
{3}
10 км {туман} 3/3 600 м
[Cb cap]
+21.7 +16.4 72 +26 +34 душно 1009.5 991.4
09 14.07 В 1-3
{6}
10 км 10/8 600 м
[Cb cap Ac trans Ci sp]
+23.1 +16.9 68 +28 +30 душно 1009.2 991.2
12 14.07 В 1-2
{5}
10 км 5/4 1000 м
[Cb cap Ci fib]
+24.6 +15.9 58 +28 +35 душно 1008.2 990.3
15 14.07 Ю 1-3
{4}
10 км 3/3 1000 м
[Cb cap Ci fib]
+26.3 +16.0 53 +30 +31 душно 1007.2 989.5 +26.7
18 14.07 штиль 0
{3}
10 км 8/4 600 м
[Cb cap Ci fib]
+21.4 +17.5 78 +25 +25 комфорт 1008.6 990.4
21 14.07 штиль 0
{1}
10 км 4/3
[Sc diur, vesp]
+19.4 +16.0 81 +21 +21 комфорт 1008.7 990.5
00 15.07 В 1-1
{1}
10 км 8/0
[Ac As]
+17.5 +15.5 88 +19 +19 тепло 1009.0 990.7
03 15.07 штиль 0
{1}
10 км 4/0
[Ci fib]
+21.8 +17.3 76 +26 +29 душно 1009.3 991.2 +17.3
06 15.07 СВ 1-3
{3}
10 км 4/0
[Ci fib]
+25.4 +15.9 56 +29 +39 душно 1009.5 991.6
09 15.07 В 1-2
{4}
10 км 3/1 1000 м
[Cu med, cong Ci fib]
+27.1 +15.7 50 +30 +45 душно 1009.1 991.3
12 15.07 В 1-4
{5}
10 км 4/4 1000 м
[Cu med, cong]
+28.5 +15.3 45 +31 +38 душно 1008.4 990.7
15 15.07 СВ 1-3
{4}
10 км 1/1 1000 м
[Cu med, cong]
+27.4 +16.9 53 +31 +34 душно 1008.2 990.4 +28.8
18 15.07 СВ 1-2
{4}
10 км 3/0
[Ci fib]
+23.0 +16.9 69 +28 +28 душно 1009.2 991.2
21 15.07 В 1-3
{3}
10 км ясно +22.5 +17.7 74 +28 +28 душно 1009.4 991.3

 

Местоположение метеостанции Нижний Новгород (Нижегородская область, Россия): широта 56.27 долгота 44.00 высота над уровнем моря 157 м.

В архиве по умолчанию представлена погода в Нижнем Новгороде за последнюю неделю. Архивные данные за месяц целиком и за предыдущие месяцы, начиная с января 2011 года, Вы можете получить, выбрав интересующий диапазон дат из раскрывающегося списка и нажав кнопку "Ввод!".


*Определитесь, кто Вы:
робот инопланетянин человек

Внимание! Время в таблицах - всемирное. Для получения местного времени необходимо прибавить поправку, которая в Нижнем Новгороде равна 3 ч.

Смотрите также архив погоды в соседних городах и на ближайших метеорологических станциях:

Погода в Нижнем Новгороде аэропорт (Нижегородская область, Россия) (15 км)
Погода в Дальнем Константиново (Нижегородская область, Россия) (53 км)
Погода в Балахне (Нижегородская область, Россия) (54 км)
Погода в Волжской ГМО (Нижегородская область, Россия) (57 км)
Погода в Семенове (Нижегородская область, Россия) (60 км)
Погода в Павлово (Нижегородская область, Россия) (70 км)
Погода в Лысково (Нижегородская область, Россия) (70 км)
Погода в Арзамасе (Нижегородская область, Россия) (101 км)
Погода в Воскресенском (Нижегородская область, Россия) (106 км)
Погода в Вязниках (Владимирская область, Россия) (113 км)

Пояснения к столбцам:

Ветер - указаны скорость ветра в м/с - средняя за 10 мин, порывы в срок и между сроками (в фигурных скобках) и направление, откуда дует ветер: С - северный, СВ - северо-восточный, В - восточный, ЮВ - юго-восточный, Ю - южный, ЮЗ - юго-западный, З - западный, СЗ - северо-западный.
Видимость - горизонтальная дальность видимости в метрах или километрах. При видимости от 1 до 10 км при отсутствии осадков обычно наблюдается дымка, при ухудшении видимости до 1 км и менее - туман. В сухую погоду видимость может ухудшаться дымом, пылью или мглою.
Явления - указаны атмосферные явления, наблюдавшиеся в срок или в последний час перед сроком; фигурными скобками обозначены явления, наблюдавшиеся между сроками (за 1-3 часа до срока); квадратными скобками обозначены град или гололедные отложения с указанием их диаметра в мм.
Облачность - указаны через наклонную черту общая и нижняя облачность в баллах и высота нижней границы облаков в метрах; квадратными скобками обозначены формы облаков: Ci - перистые, Cs - перисто-слоистые, Cc - перисто-кучевые, Ac - высококучевые, As - высокослоистые, Sc - слоисто-кучевые, Ns - слоисто-дождевые, Cu - кучевые, Cb - кучево-дождевые. Подробнее классификацию облаков см. в Атласе облаков (PDF).
T - Температура воздуха - температура, измеренная на высоте 2 м над землей.
Td - Температура точки росы - температура, при понижении до которой содержащийся в воздухе водяной пар достигнет насыщения.
f - Относительная влажность воздуха - влажноcть воздуха, измеренная на высоте 2 м над землей.
Te - Эффективная температура - температура, которую ощущает одетый по сезону человек в тени. Характеристика душности погоды. При расчете учитывается влияние влажности воздуха и скорости ветра на теплоощущения человека.
Tes - Эффективная температура на солнце - температура, которую ощущает человек, с поправкой на солнечный нагрев. Характеристика знойности погоды. Зависит от высоты солнца над горизонтом, облачности и скорости ветра. Ночью, в пасмурную погоду, а также при ветре 12 м/с и более поправка равна нулю.
P - Атмосферное давление - приведенное к уровню моря атмосферное давление.
Po - Атмосферное давление - измеренное на уровне метеостанции атмосферное давление.
Tmin - Минимальная температура - минимум температуры воздуха на высоте 2 м над землей.
Tmax - Максимальная температура - максимум температуры воздуха на высоте 2 м над землей.
R - Количество осадков - Количество выпавших осадков за период времени, мм. При наведении курсора мыши на число - период времени, за который выпало указанное количество осадков.
R24 - Количество осадков - Количество выпавших осадков за 24 часа, мм.
S - Снежный покров - Высота снежного покрова, см. При наведении курсора мыши на число - состояние снежного покрова и степень покрытия местности в баллах.